Regional Weather Roundup
Issued by NWS Lake Charles, LA

Home | Current Version | Previous Version | Text Only | Print | Product List | Glossary On
Versions: 1 2 3 4 5 6 7 8 9 10 11 12 13 14 15 16 17 18 19 20 21 22 23 24 25 26 27
000
ASUS44 KLCH 231810
RWRLCH
REGIONAL WEATHER ROUNDUP
NATIONAL WEATHER SERVICE LAKE CHARLES LA
100 PM CDT FRI JUN 23 2017

Note: "fair" indicates few or no clouds below 12,000 feet with no
significant weather and/or obstructions to visibility.


ACROSS SOUTHEAST TEXAS

CITY           SKY/WX    TMP DP  RH WIND       PRES   REMARKS
BEAUMONT       CLOUDY    88  77  69 S16G22    29.88S HX 100
BEAUMONT CITY  MOCLDY   N/A N/A N/A MISG      29.89S
ORANGE         CLOUDY    87  79  77 S14       29.90S HX 102
JASPER           N/A     88  78  71 S10       29.91S HX 100
$$

ACROSS CENTRAL LOUISIANA

CITY           SKY/WX    TMP DP  RH WIND       PRES   REMARKS
LEESVILLE      CLOUDY    87  77  72 SW14      29.88S
FULLERTON      FAIR      88  77  69 VRB7      29.86F HX 100
ALEXANDRIA INT CLOUDY    87  79  76 S13       29.86  HX 101
ESLER FIELD    CLOUDY    87  80  79 S6        29.89  HX 103
DERIDDER       MOCLDY    87  76  69 S10       29.91S
OAKDALE        TSTM      80  77  90 SW3       29.89F
OPELOUSAS      MOCLDY    87  78  72 SW12G18   29.89F HX 100
$$

ACROSS SOUTHWEST AND SOUTH CENTRAL LOUISIANA

CITY           SKY/WX    TMP DP  RH WIND       PRES   REMARKS
SULPHUR        LGT RAIN  83  80  92 S10       29.91R
LAKE CHARLES   CLOUDY    87  81  82 S10G21    29.90R HX 104
CHENNAULT INT  NOT AVBL
CAMERON PHI    CLEAR     86  81  84 S13G18    29.89S HX 102
DEQUINCY       FAIR      86  77  72 S9G17     29.90S
JENNINGS       MOCLDY   N/A N/A N/A S14       29.90S
LAFAYETTE      PTSUNNY   89  80  74 S15G21    29.90S HX 106
NEW IBERIA     PTSUNNY   90  81  74 S15G21    29.92S HX 108
ABBEVILLE      LGT RAIN  86  84  94 S16G23    29.91S HX 108
PATTERSON      CLOUDY    86  80  82 S16G25    29.93S HX 101
SALT POINT       N/A     87  80  79 VRB5      29.92R HX 103
$$

SELECTED SITES ACROSS THE REGION

CITY           SKY/WX    TMP DP  RH WIND       PRES   REMARKS
HOUSTON BUSH   PTSUNNY   92  73  53 S8        29.86R HX 100
HOUSTON HOBBY  MOSUNNY   94  73  50 S12G17    29.85S HX 103
GALVESTON      MOSUNNY   87  81  82 S14       29.88S HAZE    HX 104
COLLEGE STAT   MOSUNNY   91  76  61 SE13      29.83S HX 103
CONROE         PTSUNNY   91  74  57 S8        29.86S HX 100
HUNTSVILLE     MOSUNNY   91  72  53 SE7       29.86S
LUFKIN         PTSUNNY   87  76  69 S10       29.86S
SHREVEPORT     PTSUNNY   88  77  69 SW8       29.85R HX 100
MONROE         CLOUDY    82  78  88 SW10      29.87F
NATCHEZ MS     CLOUDY    77  75  94 SW5       29.93R
BATON ROUGE    LGT RAIN  80  73  79 SW7       29.91S
N.O. INTL ARPT PTSUNNY   88  78  72 S17       29.93S HX 101
SLIDELL        CLOUDY    89  78  70 S14G25    29.93S HX 103
$$

MARINE REPORTS

STATION/POSITION TIME  SKY/WX   TEMP    WIND        PRES    VSBY
                                AIR SEA DIR/SP/G
                 (UTC)          (F)     (DEG/KT/KT) (MB)    (MI)
BUOY 30 S HIGH I 1650            83 82  180/ 10/ 12 1011.5
WVE H/P(F/S)=  5/ 8

SEA RIM ST PARK  1700            84     190/ 11/ 14 1012.6R
PORT ARTHUR      1748            85 82  190/ 12/ 17 1012.3S
SABINE PASS N    1742            85 84  180/ 14/ 18 1013.6R
TEXAS POINT      NOT AVBL
CALCASIEU PASS   1748            83 82  210/ 14/ 17   N/A
LK CHARLES BEACH 1748            84 81              1012.7S
MARSH ISLAND     1700            84                   N/A
FRESH WATER LOCK 1748            82 82  170/ 12/ 14 1013.0S
AMERADA PASS     1748            84 82  170/  3/ 10 1013.6R
$$




USA.gov is the U.S. government's official web portal to all federal, state and local government web resources and services.